{"data":{"norad_id":64248,"intl_designator":"2025-119R","name":"STARLINK-34234","alt_names":[],"object_type":"PAYLOAD","status":"ACTIVE","operator":null,"country":"US","launch_date":"2025-06-03","launch_site_code":"AFETR","launch_vehicle":null,"mission":null,"orbit_class":"UNKNOWN","rcs_meters":null,"size_class":null,"mass_kg":null,"dimensions":null,"purposes":["comms"],"wikipedia_slug":null,"has_3d_model":false,"image_url":null,"decayed_at":null,"tle_current":{"epoch":"2026-09-20T09:02:31.098048Z","epoch_age_seconds":148270,"freshness":"FRESH","line1":"1 64248U 25119R   26263.37674882  .00012592  00000+0  46618-3 0  9992","line2":"2 64248  43.0041 287.6046 0002528 283.0994  76.9575 15.27588057 73943","mean_motion":15.27588057,"eccentricity":0.0002528,"inclination_deg":43.0041,"raan_deg":287.6046,"arg_perigee_deg":283.0994,"mean_anomaly_deg":76.9575,"bstar":0.00046618,"rev_number":7394,"period_min":94.266251519928,"perigee_km":481.29046884304,"apogee_km":484.75947233537,"semimajor_km":6861.1619705892,"source":"CELESTRAK","updated_at":"2026-09-21T09:00:35.279404Z"}}}